#timestamp,LO_Frequency,Hit,StdDev 
1535965215.6,286047002.2,N
1535965235.4,286047002.8,N
1535965255.2,286047000.5,N
1535965275.1,286047000.9,N
1535965276.0,286047000.9,N
1535965295.8,286047000.4,N
1535965315.6,286046999.8,N
1535965335.5,286047000.4,N
1535965355.3,286047001.5,N
1535965375.1,286047002.1,N
1535965395.9,286047002.7,N
1535965415.7,286047002.8,N
1535965435.6,286047001.9,N
1535965455.4,286047004.4,N
1535965475.2,286047001.6,N
1535965495.1,286047001.9,N
1535965496.0,286047001.9,N
1535965515.8,286047003.8,N
1535965535.7,286047002.4,N
1535965555.5,286047002.7,N
1535965575.3,286047003.0,N
1535965595.2,286047002.9,N
1535965615.9,286047000.1,N
1535965635.7,286047000.3,N
1535965655.6,286047000.6,N
1535965675.4,286047000.3,N
1535965695.2,286047002.3,N
1535965715.1,286046998.2,N
1535965716.0,286046998.2,N
1535965735.8,286046998.7,N
1535965755.7,286046998.8,N
1535965775.5,286046997.6,N
1535965795.3,286046998.0,N
1535965815.2,286046996.9,N
1535965835.0,286046995.3,N
1535965835.9,286046995.3,N
1535965855.7,286046993.4,N
1535965875.6,286046994.2,N
1535965895.4,286046993.3,N
1535965915.3,286046998.0,N
1535965935.1,286046997.2,N
1535965936.0,286046997.2,N
1535965955.8,286046999.4,N
1535965975.7,286046999.1,N
1535965995.5,286047001.2,N
1535966015.3,286046998.5,N
1535966035.2,286046998.6,N
1535966055.0,286046999.3,N
1535966055.9,286046999.3,N
1535966075.8,286046997.3,N
1535966095.6,286047000.6,N
1535966115.4,286046999.4,N
1535966135.3,286046999.6,N
1535966155.1,286046998.7,N
1535966175.8,286046996.6,N
1535966195.7,286046999.0,N
1535966215.5,286047001.2,N
1535966235.4,286047001.3,N
1535966255.2,286047002.8,N
1535966275.0,286047001.2,N
1535966275.9,286047001.2,N
1535966295.8,286047001.0,N
1535966315.6,286046999.9,N
1535966335.4,286047001.8,N
1535966355.3,286047003.9,N
1535966375.1,286047001.1,N
1535966395.9,286047000.5,N
1535966415.7,286047001.6,N
1535966435.5,286047002.9,N
1535966455.4,286047004.9,N
1535966475.2,286047004.8,N
1535966495.0,286047005.4,N
1535966495.9,286047005.4,N
1535966515.8,286047001.4,N
1535966535.6,286047002.2,N
1535966555.5,286046998.1,N
1535966575.3,286047000.6,N
1535966595.1,286046999.4,N
1535966615.9,286046997.4,N
1535966635.7,286046997.1,N
1535966655.5,286046996.7,N
1535966675.4,286046998.6,N
1535966695.2,286046998.0,N
1535966715.1,286046995.5,N
1535966716.0,286046995.5,N
1535966735.8,286046995.3,N
1535966755.6,286046994.9,N
1535966775.5,286046995.1,N
1535966795.3,286046993.4,N
1535966815.1,286046994.1,N
1535966835.9,286046996.2,N
1535966855.7,286046998.9,N
1535966875.6,286046999.2,N
1535966895.4,286047001.2,N
1535966915.2,286046996.6,N
1535966935.1,286046997.7,N
1535966936.0,286046997.7,N
1535966955.8,286046995.5,N
1535966975.6,286046999.1,N
1535966995.5,286046999.3,N
1535967015.3,286046996.6,N
1535967035.2,286046998.3,N
1535967055.9,286047002.4,N
1535967075.7,286046999.7,N
1535967095.6,286047000.9,N
1535967115.4,286046998.5,N
1535967135.2,286047000.8,N
1535967155.1,286046999.6,N
1535967156.0,286046999.6,N
1535967175.8,286046997.5,N
1535967195.7,286046999.6,N
1535967215.5,286047001.0,N
1535967235.3,286046999.3,N
1535967255.2,286046997.4,N
1535967275.0,286046997.8,N
1535967275.9,286046997.8,N
1535967295.7,286046998.3,N
1535967315.6,286047001.2,N
1535967335.4,286046998.8,N
1535967355.3,286046995.2,N
1535967375.1,286046995.3,N
1535967376.0,286046995.3,N
1535967395.8,286046995.8,N
1535967415.7,286046998.0,N
1535967435.5,286046996.9,N
1535967455.3,286046999.4,N
1535967475.2,286046999.0,N
1535967495.0,286047000.9,N
1535967495.9,286047000.9,N
1535967515.8,286046998.6,N
1535967535.6,286047001.2,N
1535967555.4,286046997.0,N
1535967575.3,286046995.2,N
1535967595.1,286046993.5,Y
1535967615.9,286046995.1,P
1535967635.7,286046997.8,N
1535967655.5,286046995.7,N
1535967675.4,286046997.6,N
1535967695.2,286046996.6,N
1535967715.0,286046995.5,Y
1535967715.9,286046995.5,P
1535967735.8,286046994.9,P
1535967755.6,286046998.9,N
1535967775.5,286047000.3,N
1535967795.3,286046996.5,N
1535967815.1,286046995.9,N
1535967835.9,286046995.0,N
1535967855.7,286046996.0,N
1535967875.5,286046994.9,N
1535967895.4,286046997.1,N
1535967915.2,286046999.1,N
1535967935.1,286046999.5,N
1535967936.0,286046999.5,N
1535967955.8,286046999.6,N
1535967975.6,286046997.0,N
1535967995.5,286046995.9,N
1535968015.3,286046993.8,Y
1535968035.2,286046996.8,P
1535968055.9,286046997.4,P
1535968075.7,286046995.2,P
1535968095.6,286046995.4,Y
1535968115.4,286047000.8,P
1535968135.3,286047000.9,N
1535968155.1,286047000.3,N
1535968156.0,286047000.3,N
1535968175.8,286047001.2,N
1535968195.7,286047001.1,N
1535968215.5,286047001.2,N
1535968235.4,286046998.8,N
1535968255.2,286046996.6,N
1535968275.0,286046999.9,N
1535968275.9,286046999.9,N
1535968295.8,286046998.7,N
1535968315.6,286046999.6,N
1535968335.4,286047000.2,N
1535968355.3,286046998.6,N
1535968375.1,286046998.9,N
1535968395.9,286046999.2,N
1535968415.7,286046998.2,N
1535968435.5,286047001.2,N
1535968455.4,286047001.2,N
1535968475.2,286047001.1,N
1535968495.0,286047001.9,N
1535968495.9,286047001.9,N
1535968515.8,286047000.4,N
1535968535.6,286047000.3,N
1535968555.5,286046996.5,N
1535968575.3,286046996.5,N
1535968595.1,286046997.0,N
1535968615.9,286046997.3,N
1535968635.7,286046995.0,N
1535968655.5,286046995.2,N
1535968675.4,286046995.8,N
1535968695.2,286046998.0,N
1535968715.1,286046996.0,N
1535968716.0,286046996.0,N
1535968735.8,286046997.5,N
1535968755.6,286046998.9,N
1535968775.5,286046999.3,N
1535968795.3,286047001.1,N
